Regional Weather Roundup
Issued by NWS

Home | Current Version | Previous Version | Graphics & Text | Print | Product List | Glossary On
Versions: 1 2 3 4 5 6 7 8 9 10 11 12 13 14 15 16 17 18 19 20 21 22 23 24 25 26 27 28 29 30 31 32 33 34 35 36 37 38 39 40 41 42 43 44 45 46 47 48 49
000
ASUS45 KBOU 302307
RWRCO

WEATHER ROUNDUP FOR COLORADO
NATIONAL WEATHER SERVICE DENVER/BOULDER CO
500 PM MDT SAT APR 30 2016

NOTE: "FAIR" INDICATES FEW OR NO CLOUDS BELOW 12000 FEET WITH NO
SIGNIFICANT WEATHER AND/OR OBSTRUCTIONS TO VISIBILITY.

COZ001>005-013-030-031-010000-
...NORTHWEST COLORADO...

CITY           SKY/WX    TMP DP  RH WIND       PRES   REMARKS
CRAIG          CLOUDY    47  26  44 NE7       29.97R
HAYDEN         FAIR      43  19  39 NE15      29.97R
MEEKER         FAIR      45  34  65 N16       29.95R
MOUNT WERNER   NOT AVBL
STEAMBOAT SPGS PTSUNNY   38  21  49 NE17G25   29.98R
WALDEN         PTSUNNY   32  19  59 N13       30.05R WCI  22
$$

COZ006>008-011-010000-
...WEST CENTRAL VALLEYS...

CITY           SKY/WX    TMP DP  RH WIND       PRES   REMARKS
GRAND JUNCTION CLOUDY    53  31  42 NE9       29.87F
MONTROSE       FAIR      54  28  36 W10G17    29.88S
EAGLE          CLOUDY    43  34  70 SW5       29.97R
RIFLE          FAIR      51  30  44 NW6       29.91R
DELTA          NOT AVBL
NUCLA          NOT AVBL
$$

COZ017>023-064>068-010000-
...SOUTHWEST COLORADO...

CITY           SKY/WX    TMP DP  RH WIND       PRES   REMARKS
DURANGO        CLOUDY    52  26  36 E6        29.82S
CORTEZ         LGT RAIN  51  37  58 W9G22     29.84S
PAGOSA SPRINGS FAIR      51  28  41 CALM      29.87S
TELLURIDE      PTSUNNY   41  24  49 CALM      29.92S
WOLF CREEK PAS PTSUNNY   27  25  93 SW17G24   29.99S WCI  14
$$

COZ009-010-012-014-032>034-037-058>063-010000-
...CENTRAL COLORADO...

CITY           SKY/WX    TMP DP  RH WIND       PRES   REMARKS
ASPEN          CLOUDY    42  28  57 NW9       29.91R
BUENA VISTA    LGT SNOW  34  29  81 NE12G17   29.96R VSB 1   WCI  25
COPPER MTN     NOT AVBL
BERTHOUD PASS  LGT SNOW  14   3  62 E10G24    30.00R VSB 3/4 WCI   1
COTTONWOOD PAS CLOUDY    32  28  86 CALM      29.96R
GUNNISON       CLOUDY    48  25  40 N9        29.88S
KREMMLING      CLOUDY    37  23  56 NW16G23   29.99R
LEADVILLE      LGT SNOW  30  23  75 N12       29.94R WCI  20
SALIDA         CLOUDY    34  33  96 MISG      30.02R
SUNLIGHT       FOG       30  28  93 N6        30.02R VSB<1/4 WCI  24
WILKERSON PASS FOG       21  18  86 E12G17    30.00R VSB 1/2 WCI   9
$$

COZ069>075-010000-
...SAN LUIS VALLEY/SANGRE DE CRISTO MOUNTAINS...

CITY           SKY/WX    TMP DP  RH WIND       PRES   REMARKS
ALAMOSA        PTSUNNY   50  32  50 N15       29.86S
LA VETA PASS   HVY SNOW  23  21  93 MISG      29.97R VSB 1/4
SAGUACHE       PTSUNNY   50  23  34 N5        29.86S
$$

COZ035-036-038>040-010000-
...NORTHERN COLORADO FRONT RANGE...

CITY           SKY/WX    TMP DP  RH WIND       PRES   REMARKS
DENVER INTL AP SNOW      33  30  88 N15       30.06R VSB 1/2 WCI  23
DMNS CITY PARK   N/A     36  33  88 N13G21    30.07R
AURORA         LGT SNOW  32  32 100 N24       30.06R FOG     WCI  19
FRONT RANGE AP NOT AVBL
ERIE MUNI ARPT LGT RAIN  37  34  88 N16G26    30.09R
BOULDER MUN AP CLOUDY    37  32  81 N13G24    30.09R
CENTENNIAL     LGT SNOW  33  33 100 N20       30.06R FOG     WCI  21
BROOMFIELD     LGT SNOW  36  34  93 N17G25    30.08R
FORT COLLINS   CLOUDY    36  34  93 N13       30.10R
LONGMONT       MIX PCPN  40  34  78 N16G23    30.11R
$$

COZ041-046-047-076>085-087-088-010000-
...PIKES PEAK/PALMER DIVIDE AND SOUTHERN FOOTHILLS...

CITY           SKY/WX    TMP DP  RH WIND       PRES   REMARKS
COLO. SPRINGS  CLOUDY    36  25  64 NW20G32   30.01R
A. F. ACADEMY  LGT RAIN  32  27  80 N20G28    30.00R WCI  20
SCHRIEVER AFB  NOT AVBL
ELLICOTT       NOT AVBL
FALCON         CLOUDY    33  26  76 N21G31    30.00R WCI  21
FORT CARSON    FAIR      39  29  65 N28G40    29.97R
LIMON          LGT SNOW  33  30  88 N35G43    29.98R FOG     WCI  18
MONUMENT HILL  LGT SNOW  30  28  93 N22G29    30.03R VSB 1   WCI  17
TRINIDAD       CLOUDY    38  29  70 N14       30.00R
$$

COZ042>045-048>051-090-091-010000-
...NORTHEAST COLORADO...

CITY           SKY/WX    TMP DP  RH WIND       PRES   REMARKS
GREELEY ARPT   CLOUDY    37  34  87 N21       30.09R
AKRON          SNOW      32  30  92 N22       29.99R VSB 1/2 WCI  19
BURLINGTON     MIX PCPN  36  32  85 N21G32    29.92R
WRAY           NOT AVBL
STERLING       LGT RAIN  34  34 100 N18       30.00R WCI  23
HOLYOKE        NOT AVBL
FORT MORGAN    LGT RAIN  35  33  94 N15       30.05R WCI  25
$$

COZ086-089-092>099-010000-
...SOUTHEAST COLORADO...

CITY           SKY/WX    TMP DP  RH WIND       PRES   REMARKS
PUEBLO         CLOUDY    46  28  49 N28G37    29.98R
LA JUNTA       CLOUDY    47  31  53 N23G36    29.98R
LAMAR          PTSUNNY   47  32  56 N22G30    29.92R
SPRINGFIELD      N/A     47  31  53 NW24G35   29.93R
$$



USA.gov is the U.S. government's official web portal to all federal, state and local government web resources and services.